TimeCDT,TemperatureF,Dew PointF,Humidity,Sea Level PressureIn,VisibilityMPH,Wind Direction,Wind SpeedMPH,Gust SpeedMPH,PrecipitationIn,Events,Conditions,WindDirDegrees,DateUTC
12:15 AM,32.0,30.2,93,29.97,10.0,NW,17.3,21.9,N/A,,Overcast,320,2013-03-24 05:15:00
12:35 AM,32.0,30.2,93,29.97,10.0,NW,19.6,-,N/A,,Overcast,320,2013-03-24 05:35:00
12:55 AM,32.0,30.2,93,29.97,7.0,NNW,16.1,24.2,N/A,,Overcast,330,2013-03-24 05:55:00
1:15 AM,32.0,30.2,93,29.97,10.0,NW,20.7,24.2,N/A,,Overcast,320,2013-03-24 06:15:00
1:35 AM,32.0,28.4,87,29.98,10.0,NNW,19.6,29.9,N/A,,Overcast,330,2013-03-24 06:35:00
1:55 AM,32.0,28.4,87,29.99,10.0,NW,18.4,24.2,N/A,,Mostly Cloudy,320,2013-03-24 06:55:00
2:15 AM,32.0,28.4,87,30.00,10.0,NW,15.0,19.6,N/A,,Mostly Cloudy,320,2013-03-24 07:15:00
2:35 AM,32.0,28.4,87,30.00,10.0,NNW,21.9,27.6,N/A,,Overcast,330,2013-03-24 07:35:00
2:55 AM,32.0,28.4,87,30.00,10.0,NW,20.7,29.9,N/A,,Overcast,320,2013-03-24 07:55:00
3:15 AM,32.0,26.6,80,30.01,10.0,NNW,27.6,42.6,N/A,,Mostly Cloudy,340,2013-03-24 08:15:00
3:35 AM,32.0,26.6,80,30.01,10.0,NNW,29.9,39.1,N/A,,Mostly Cloudy,330,2013-03-24 08:35:00
3:55 AM,32.0,26.6,80,30.02,10.0,NNW,24.2,33.4,N/A,,Mostly Cloudy,330,2013-03-24 08:55:00
4:15 AM,30.2,24.8,80,30.02,10.0,NNW,21.9,32.2,N/A,,Mostly Cloudy,340,2013-03-24 09:15:00
4:35 AM,30.2,24.8,80,30.02,10.0,NNW,25.3,35.7,N/A,,Overcast,340,2013-03-24 09:35:00
5:15 AM,30.2,23.0,75,30.03,10.0,NNW,18.4,-,N/A,,Overcast,340,2013-03-24 10:15:00
5:35 AM,30.2,23.0,75,30.04,10.0,NNW,18.4,27.6,N/A,,Overcast,340,2013-03-24 10:35:00
5:55 AM,30.2,23.0,75,30.05,10.0,NNW,21.9,31.1,N/A,,Overcast,340,2013-03-24 10:55:00
6:15 AM,30.2,23.0,75,30.06,10.0,NNW,23.0,32.2,N/A,,Overcast,340,2013-03-24 11:15:00
6:35 AM,30.2,23.0,75,30.06,10.0,North,24.2,29.9,N/A,,Overcast,350,2013-03-24 11:35:00
6:55 AM,30.2,23.0,75,30.07,10.0,NNW,21.9,29.9,N/A,,Overcast,340,2013-03-24 11:55:00
7:15 AM,30.2,23.0,75,30.09,10.0,NNW,20.7,24.2,N/A,,Overcast,330,2013-03-24 12:15:00
7:35 AM,28.4,21.2,74,30.10,10.0,NNW,18.4,24.2,N/A,,Mostly Cloudy,340,2013-03-24 12:35:00
7:55 AM,28.4,21.2,74,30.11,10.0,NNW,17.3,24.2,N/A,,Overcast,330,2013-03-24 12:55:00
8:15 AM,28.4,21.2,74,30.13,10.0,NNW,19.6,26.5,N/A,,Overcast,340,2013-03-24 13:15:00
8:35 AM,28.4,21.2,74,30.14,10.0,NNW,17.3,28.8,N/A,,Mostly Cloudy,330,2013-03-24 13:35:00
8:55 AM,30.2,21.2,69,30.15,10.0,NNW,19.6,25.3,N/A,,Overcast,330,2013-03-24 13:55:00
9:15 AM,28.4,21.2,74,30.16,10.0,NNW,24.2,29.9,N/A,,Overcast,340,2013-03-24 14:15:00
9:35 AM,28.4,19.4,69,30.17,10.0,NNW,24.2,36.8,N/A,,Mostly Cloudy,330,2013-03-24 14:35:00
9:55 AM,30.2,19.4,64,30.17,10.0,NNW,26.5,31.1,N/A,,Scattered Clouds,330,2013-03-24 14:55:00
10:15 AM,30.2,19.4,64,30.18,10.0,NNW,24.2,32.2,N/A,,Scattered Clouds,340,2013-03-24 15:15:00
10:35 AM,32.0,19.4,60,30.18,10.0,North,27.6,35.7,N/A,,Scattered Clouds,350,2013-03-24 15:35:00
10:55 AM,32.0,19.4,60,30.18,10.0,North,23.0,35.7,N/A,,Clear,360,2013-03-24 15:55:00
11:15 AM,32.0,17.6,55,30.19,10.0,NNW,23.0,29.9,N/A,,Clear,330,2013-03-24 16:15:00
11:35 AM,33.8,17.6,52,30.19,10.0,North,23.0,28.8,N/A,,Clear,350,2013-03-24 16:35:00
11:55 AM,33.8,17.6,52,30.19,10.0,North,18.4,31.1,N/A,,Clear,350,2013-03-24 16:55:00
12:15 PM,33.8,17.6,52,30.18,10.0,NNW,21.9,28.8,N/A,,Clear,340,2013-03-24 17:15:00
12:35 PM,33.8,17.6,52,30.17,10.0,North,23.0,31.1,N/A,,Clear,350,2013-03-24 17:35:00
12:55 PM,35.6,17.6,48,30.17,10.0,North,24.2,29.9,N/A,,Clear,350,2013-03-24 17:55:00
1:15 PM,35.6,17.6,48,30.17,10.0,North,23.0,29.9,N/A,,Clear,350,2013-03-24 18:15:00
1:35 PM,37.4,17.6,45,30.16,10.0,NNW,23.0,29.9,N/A,,Clear,340,2013-03-24 18:35:00
1:55 PM,37.4,15.8,41,30.15,10.0,North,23.0,27.6,N/A,,Clear,350,2013-03-24 18:55:00
2:15 PM,37.4,17.6,45,30.15,10.0,NNW,20.7,28.8,N/A,,Clear,340,2013-03-24 19:15:00
2:35 PM,41.0,15.8,36,30.15,10.0,NNW,18.4,26.5,N/A,,Clear,340,2013-03-24 19:35:00
2:55 PM,41.0,14.0,33,30.14,10.0,North,17.3,26.5,N/A,,Clear,350,2013-03-24 19:55:00
3:15 PM,41.0,14.0,33,30.13,10.0,North,18.4,29.9,N/A,,Clear,350,2013-03-24 20:15:00
3:35 PM,41.0,14.0,33,30.12,10.0,NNW,18.4,-,N/A,,Clear,340,2013-03-24 20:35:00
3:55 PM,41.0,12.2,31,30.12,10.0,North,19.6,28.8,N/A,,Clear,350,2013-03-24 20:55:00
4:15 PM,41.0,12.2,31,30.12,10.0,North,18.4,27.6,N/A,,Clear,350,2013-03-24 21:15:00
4:35 PM,41.0,12.2,31,30.12,10.0,North,17.3,27.6,N/A,,Clear,360,2013-03-24 21:35:00
4:55 PM,41.0,12.2,31,30.12,10.0,North,18.4,24.2,N/A,,Clear,350,2013-03-24 21:55:00
5:15 PM,41.0,14.0,33,30.12,10.0,North,17.3,27.6,N/A,,Clear,350,2013-03-24 22:15:00
5:35 PM,42.8,14.0,31,30.12,10.0,NNW,17.3,-,N/A,,Clear,340,2013-03-24 22:35:00
6:15 PM,41.0,12.2,31,30.14,10.0,NNW,17.3,21.9,N/A,,Clear,340,2013-03-24 23:15:00
6:35 PM,41.0,12.2,31,30.14,10.0,North,17.3,23.0,N/A,,Clear,360,2013-03-24 23:35:00
7:15 PM,39.2,10.4,31,30.15,10.0,North,13.8,19.6,N/A,,Clear,350,2013-03-25 00:15:00
7:35 PM,37.4,12.2,36,30.15,10.0,North,12.7,-,N/A,,Clear,360,2013-03-25 00:35:00
7:55 PM,35.6,12.2,38,30.15,10.0,North,9.2,-,N/A,,Clear,360,2013-03-25 00:55:00
8:15 PM,35.6,12.2,38,30.16,10.0,North,9.2,-,N/A,,Clear,360,2013-03-25 01:15:00
8:35 PM,32.0,14.0,48,30.17,10.0,North,5.8,-,N/A,,Clear,360,2013-03-25 01:35:00
8:55 PM,32.0,14.0,48,30.17,10.0,NNW,4.6,-,N/A,,Clear,340,2013-03-25 01:55:00
9:15 PM,32.0,14.0,48,30.18,10.0,NNW,4.6,-,N/A,,Clear,340,2013-03-25 02:15:00
9:35 PM,32.0,14.0,48,30.18,10.0,North,4.6,-,N/A,,Clear,350,2013-03-25 02:35:00
9:55 PM,32.0,14.0,48,30.20,10.0,NW,3.5,-,N/A,,Clear,320,2013-03-25 02:55:00
10:15 PM,32.0,15.8,51,30.20,10.0,North,3.5,-,N/A,,Clear,350,2013-03-25 03:15:00
10:35 PM,32.0,17.6,55,30.21,10.0,North,5.8,-,N/A,,Clear,350,2013-03-25 03:35:00
10:55 PM,30.2,17.6,60,30.21,10.0,North,5.8,-,N/A,,Clear,350,2013-03-25 03:55:00
11:15 PM,30.2,17.6,60,30.22,10.0,North,5.8,-,N/A,,Clear,350,2013-03-25 04:15:00
11:35 PM,30.2,19.4,64,30.22,10.0,North,5.8,-,N/A,,Clear,350,2013-03-25 04:35:00